Tracking 21473 objects as of 26-Sep-2020
HD Live streaming from Space Station
objects crossing your sky now

DELTA 1 DEB

Track DELTA 1 DEB now!
10-day predictions


NORAD ID: 13575
Int'l Code: 1978-026FN
Perigee: 871.0 km
Apogee: 900.1 km
Inclination: 99.1 °
Period: 102.5 minutes
Semi major axis: 7256 km
RCS: 0.035 m2 (small)
Launch date: March 5, 1978
Source: United States (US)
Launch site: AIR FORCE WESTERN TEST RANGE (AFWTR)

Note: This is SATELLITE DEBRIS
aabbcc
Your satellite tracking list
Your tracking list is empty




NASA's NSSDC Master Catalog

Two Line Element Set (TLE):
1 13575U 78026FN  20269.90093663 +.00000152 +00000-0 +12347-3 0  9997
2 13575 099.0879 236.5116 0020068 089.8267 270.5200 14.04462823011535
Source of the keplerian elements: AFSPC